Location: Elbart
(49.6135°N, 11.9134°E)
Time: 05:56:44
(UTC+00:00)

Cosmos 2233 Rocket - Pass Details

Date: 09 April 2020
Orbit: 952 x 991 km, 82.9° (Epoch: 29 May)

Event Time Altitude Azimuth Distance (km) Brightness Sun altitude
Rises 23:39:59 0° 349° (N) 3,703 8.0 -32.1°
Reaches altitude 10° 23:42:31 10° 348° (NNW) 2,746 7.1 -32.0°
Enters shadow 23:47:59 67° 323° (NW) 1,057 4.2 -31.9°
